Погода Новая Ушица

Погода Новая Ушица : погода сейчас, прогноз погоды и архив. Всё, что Вы хотите узнать о погоде Новая Ушица!

Поиск расширенной информации на нашем сайте:

Другие новости

Новости СМИ2

Главная страница сайта

Новости сайта

03.07.2017

Напоминаем, что на нашем специализированном сайте Метеоцентр.Азия вы можете получить высокодетализированные автоматические прогнозы погоды по пунктам России, СНГ и мира в авиационном формате (включающие направление и скорость ветра, видимость, явления погоды, количество и форму облачности, нижнюю и верхнюю границу облачности).


Погода Новая Ушица - сегодня

Время (UTC), дата Ветер
(°,м/с) 
Видим.   Явления Облачность Т
(°С)
Тd
(°С)
f(%) Тe
(°С)
Pmin
(гПа)
dP
(гПа)
Po
(мм)
O2
(г/м3)
Тmin Tmax R s Состояние
почвы
21 12.06.18 тихо ()   н/о  {гроза, ливн. осадки}  ясно 
+18.9 +17.6 92 +33  1004.8  0.2  728  270           
09 13.06.18 320 (СЗ) 45000 м    9/8 600 м кучево-дожд., средняя 
[Cb calv|Ac und]
+22.4 +16.6 70 +35  1006.5  0.8  730  267           
15 13.06.18 330 (СЗ) н/о    9/6 600 м кучево-дожд., средняя 
[Cb calv|Ac und]
+24.6 +16.2 60 +36  1004.5  -0.7  729  265           
21 13.06.18 060 (СВ) н/о    ясно 
+20.4 +16.8 80 +33  1006.2  0.8  730  269           
09 14.06.18 120 (ЮВ) 50000 м    9/6 600 м кучево-дожд., средняя 
[Cb cap|Ac und]
+25.4 +18.9 67 +43  1005.3  -0.3  729  264           
21 14.06.18 300 (СЗ) н/о    6/0 средняя, верхняя 
[Ac trans|Ci fib]
+15.7 +14.5 93 +26  1008.4  0.9  731  275           
09 15.06.18 080 (В) 28000 м    8/5 600 м средняя 
[Cu med, cong|Ac trans]
+22.1 +16.4 70 +34  1009.1  0.6  732  269           
15 15.06.18 350 (С) 45000 м    6/4 600 м верхняя 
[Cu med, cong|Ci fib]
+23.3 +18.3 74 +39  1009.3  0.1  732  267           
21 15.06.18 тихо ()   н/о    6/0 средняя, верхняя 
[Ac trans|Ci fib]
+17.4 +16.1 92 +29  1012.4  1.2  734  274           
21 16.06.18 050 (СВ) н/о    10/0 средняя 
[Ac As]
+18.6 +14.7 78 +29  1013.4  0.4  735  274           
21 18.06.18 тихо ()   н/о    ясно 
+18.7 +16 84 +30  1016.5  1.4  737  274           
09 19.06.18 тихо ()   30000 м    3/3 1000 м 
[Cu hum]
+26.2 +16.2 54 +38  1017.4  0.3  738  267           
15 19.06.18 320 (СЗ) 30000 м    6/4 600 м кучево-дожд., средняя 
[Cb calv|Ac lent]
+27.8 +19.6 61 +46  1016.2  -0.5  737  264           
21 19.06.18 тихо ()   н/о    ясно 
+21.3 +18.3 83 +37  1018.3  0.9  738  271           
09 20.06.18 350 (С) н/о    8/0 средняя, верхняя 
[Ac trans|Ci fib]
+25 +15.9 57 +36  1020.7  0.5  740  269           
15 20.06.18 350 (С) н/о    6/3 1000 м верхняя 
[Cu hum|Ci fib]
+26.3 +13.1 44 +32  1018.8  -1.1  739  268           
21 20.06.18 тихо ()   н/о    ясно 
+19.7 +15.5 77 +30  1019.8  0.6  739  274           
09 21.06.18 тихо ()   н/о    9/1 600 м верхняя 
[Cu med, cong|Ci fib]
+24.9 +15.6 56 +35  1016.5  -1.5  737  268           
15 21.06.18 тихо ()   н/о    8/4 600 м верхняя 
[Cu med, cong|Ci fib]
+26.9 +17.1 55 +40  1012  -2.1  734  265           
21 21.06.18 тихо ()   н/о    6/0 верхняя 
[Ci fib]
+22.1 +17.8 77 +37  1010.4  -1.4  733  268           
09 22.06.18 360 (С) 50000 м    10/6 600 м кучево-дожд., средняя 
[Cb cap|Ac As]
+19 +14.9 77 +29  1011.9  2.2  734  273           
21 23.06.18 270 (З) н/о    ясно 
+8.8 +8 95 +9  1015.7  1.1  735  285           
09 24.06.18 270 (З) н/о    9/6 600 м кучево-дожд., средняя, верхняя 
[Cb calv|Ac cuf|Ci fib]
+13.9 +7.7 66 +14  1016.7  0.6  737  281           
15 24.06.18 280 (З) н/о    8/3 600 м кучево-дожд., верхняя 
[Cb calv|Ci fib]
+16.6 +8 57 +18  1016.3  737  278           
21 24.06.18 тихо ()   н/о    ясно 
+11.1 +6.7 74 +11  1017.9  0.6  737  284           
Время (UTC), дата Ветер
(°,м/с) 
Видим.   Явления Облачность Т
(°С)
Тd
(°С)
f(%) Тe
(°С)
Pmin
(гПа)
dP
(гПа)
Po
(мм)
O2
(г/м3)
Тmin Tmax R s Состояние
почвы

Для получения пояснительной информации подведите курсор к названию столбца.

ПОГОДА Новая Ушица - архив

Всё, что Вы хотите узнать о погоде Новая Ушица - удобно и подробно!

Выберите нужную дату (начиная с 1 января 2015* года) и нажмите кнопку "Найти".
Будут отображены архивные сводки погоды по пункту Новая Ушица, начиная с указанной даты.


Отображать данные в формате CSV (для использования в таблицах Excel)


Внимание! Наш архив погоды предназначен исключительно для личного некоммерческого использования в познавательных целях. Если Вам необходимы официальные справки о состоянии погоды (для производственных, юридических, коммерческих и т.п. целей), обращайтесь в органы Росгидромета.

*Примечание: данная дата относится к архиву по метеостанциям СССР (Россия, СНГ, Балтия).
Архив по метеостанциям Зарубежной Европы и Азии (кроме Китая) хранится 10 дней, по другим регионам земного шара (Китай, Африка, Америка, Австралия, Океания) - 1 день.

Новая Ушица - район местоположения метеостанции


Название, широта, долгота, высота метеостанции:
Новая Ушица 48.9°ш. 27.3°д. 290 м над ур. моря [Украина]

Дополнительная информация

В oтличие oт бoльшинства пoгoдных сайтoв мы публикуем пoдрoбную метеoинфoрмацию в детальнoм прoфессиoнальнoм фoрмате.

Характеристики температуры и влажнoсти вoздуха измеряются на высoте 2 м в тени вдали oт зданий и деревьев.
Скoрoсть ветра измеряется на высoте 10 м (на урoвне рoста челoвека скoрoсть ветра ниже в 1.5-2 раза). Если метеoстанция нахoдится в гoрoде или в лесу, тo скoрoсть ветра занижена на 2-4 м/с пo сравнению с oткрытым местoм. Скoрoсть ветра над акватoриями крупных рек и oзёр, а также на вершинах хoлмoв на 2-5 м/с выше, чем в oбычных услoвиях.
Атмoсфернoе давление в разных тoчках местнoсти мoжет значительнo oтличаться oт давления на метеoстанции, в зависимoсти oт услoвий рельефа (при пoдъёме на 10 м давление пoнижается примернo на 1 мм рт.ст.).